Content
SEND FEEDBACK

Daily
Averages
Monthly
Summary
United States of America

GLENVIEW, ILLINOIS


Home > North America > United States > Illinois
Elevation: 653 feet     Latitude: 42 05N     Longitude: 087 50W

WEATHER
 
SELECT A DAY
Number of Records: 194,820;   Date Range: 7/8/95 - 7/23/14
 
SHARE

PRINT THIS DATA

[ ← Previous Day ]
WEATHER ALMANAC - JANUARY 24, 2013
[ Next Day → ]
[ °C ]   °F
Weather ElementAverageHighLow
Temperature14.2 °F19.9 °F (3:52 pm)3.9 °F (6:52 am)
Dewpoint1.3 °F8.6 °F (1:15 pm)-5.1 °F (2:52 am)
Humidity57.3 %68 % (1:15 pm)42 % (6:52 pm)
Barometer30.56 in30.67 in (9:52 am)30.42 in (10:52 pm)
Wind Speed8.1 mph13.8 mph (5:52 am)
Wind Gust23 mph (1:52 am)
Weather ElementAverage
Visibility9.4 mi
Wind DirectionSSW (195.2 °)

Weather ElementTotal
Precipitation---
Heating Degree Days53.1 (Base 65)
Averaged from 25 records on January 24, 2013
WEATHER CONDITIONS BREAKOUT
WIND DIRECTION BREAKOUT
WEATHER BY HOUR - JANUARY 24, 2013
[ °C ]   °F
Local TimeTemperatureDewpointHumidityBarometerVisibilityWind DirectionWind SpeedGust SpeedPrecipitationEventsConditions
1:52 AM8.1 °F-4.0 °F58 %30.47 in10.0 miNNW (330°)11.5 mph23.0 mphClear
2:52 AM7.0 °F-5.1 °F58 %30.50 in10.0 miNNW (330°)11.5 mphClear
3:52 AM6.1 °F-5.1 °F60 %30.53 in10.0 miNW (320°)11.5 mphClear
4:52 AM5.0 °F-5.1 °F63 %30.56 in10.0 miNNW (330°)12.7 mph23.0 mphClear
5:52 AM5.0 °F-5.1 °F63 %30.60 in10.0 miNNW (330°)13.8 mphClear
6:52 AM3.9 °F-5.1 °F66 %30.61 in10.0 miNNW (330°)10.4 mphClear
7:52 AM5.0 °F-4.0 °F66 %30.62 in10.0 miNNW (330°)9.2 mphClear
8:52 AM7.0 °F-2.0 °F67 %30.66 in10.0 miNNW (330°)11.5 mphClear
9:52 AM10.0 °F0.0 °F64 %30.67 in10.0 miNNW (330°)9.2 mphClear
10:52 AM12.9 °F1.9 °F62 %30.66 in10.0 miNNW (330°)6.9 mphClear
11:52 AM15.1 °F3.9 °F61 %30.64 in10.0 miVariable3.5 mphOvercast
12:22 PM17.6 °F5.0 °F58 %30.60 in8.0 miCalmOvercast
12:52 PM17.1 °F7.0 °F65 %30.63 in4.0 miCalm0.00 inSnowLight Snow
1:15 PM17.6 °F8.6 °F68 %30.58 in3.0 miCalm0.00 inSnowLight Snow
1:52 PM19.0 °F8.1 °F62 %30.61 in10.0 miCalm0.00 inPartly Cloudy
2:52 PM19.0 °F7.0 °F59 %30.59 in10.0 miSSE (150°)5.8 mphClear
3:52 PM19.9 °F6.1 °F55 %30.58 in10.0 miSouth (170°)6.9 mphClear
4:52 PM19.9 °F6.1 °F55 %30.56 in10.0 miSSE (160°)5.8 mphPartly Cloudy
5:52 PM19.9 °F1.9 °F46 %30.55 in10.0 miSSE (150°)6.9 mphMostly Cloudy
6:52 PM19.9 °F0.0 °F42 %30.53 in10.0 miSSE (160°)11.5 mphOvercast
7:52 PM19.9 °F1.9 °F46 %30.50 in10.0 miSSE (160°)10.4 mphScattered Clouds
8:52 PM19.9 °F1.9 °F46 %30.49 in10.0 miSouth (170°)8.1 mphClear
9:52 PM19.9 °F1.9 °F46 %30.48 in10.0 miSSE (150°)10.4 mphClear
10:52 PM19.9 °F1.9 °F46 %30.42 in10.0 miSSE (160°)11.5 mphClear
11:52 PM19.9 °F3.9 °F50 %30.42 in10.0 miSSE (160°)12.7 mphOvercast
Hourly data recorded from KPWK, located miles away from Glenview, Illinois







STORIES FROM OUR PARTNERS